Location: Maiden
(35.5760°N, 81.2120°W)
Time: 14:10:21
(UTC-04:00)

Cosmos 2263 Rocket - Pass Details

Date: 14 June 2018
Orbit: 824 x 848 km, 71.0° (Epoch: 15 October)

Event Time Altitude Azimuth Distance (km) Brightness Sun altitude
Rises 23:11:08 0° 226° (SW) 3,397 5.2 -23.1°
Reaches altitude 10° 23:13:50 10° 236° (SW) 2,464 4.6 -23.4°
Maximum altitude 23:18:51 32° 299° (WNW) 1,410 3.8 -24.0°
Drops below altitude 10° 23:23:54 10° 2° (N) 2,467 5.4 -24.5°
Sets 23:26:37 0° 12° (NNE) 3,401 6.1 -24.8°
